This is the latest recevied weather packets stored in our database for station/object KC0RPY. If no packets are shown the sender has not sent any weather packets the latest 10 day(s).
| Time | Temp. | Humidity | Pressure | Rain* | Wind** | Luminosity | Snow |
|---|---|---|---|---|---|---|---|
| 1777500890 | 15.56° C | 56% | 1018.8 hPa | 0 mm | - | 444 W/m² | - |
| 1777500586 | 15.56° C | 55% | 1018.5 hPa | 0 mm | - | 497 W/m² | - |
| 1777500283 | 15.56° C | 56% | 1018.8 hPa | 0 mm | - | 350 W/m² | - |
| 1777499979 | 15° C | 55% | 1018.8 hPa | 0 mm | - | 349 W/m² | - |
| 1777499676 | 15.56° C | 55% | 1019.1 hPa | 0 mm | - | 245 W/m² | - |
| 1777499373 | 15° C | 55% | 1018.8 hPa | 0 mm | - | 256 W/m² | - |
| 1777499072 | 15° C | 55% | 1018.8 hPa | 0 mm | - | 224 W/m² | - |
| 1777498767 | 15° C | 54% | 1018.8 hPa | 0 mm | - | 224 W/m² | - |
| 1777498464 | 15.56° C | 54% | 1018.8 hPa | 0 mm | - | 220 W/m² | - |
| 1777498160 | 16.67° C | 54% | 1018.8 hPa | 0 mm | - | 277 W/m² | - |
| 1777497858 | 16.67° C | 51% | 1018.8 hPa | 0 mm | - | 619 W/m² | - |
| 1777497554 | 16.67° C | 52% | 1019.1 hPa | 0 mm | - | 638 W/m² | - |
| 1777497250 | 16.11° C | 52% | 1019.1 hPa | 0 mm | - | 661 W/m² | - |
| 1777496947 | 16.67° C | 52% | 1019.1 hPa | 0 mm | - | 659 W/m² | - |
| 1777496644 | 16.11° C | 54% | 1019.5 hPa | 0 mm | - | 572 W/m² | - |
| 1777496340 | 16.67° C | 53% | 1019.5 hPa | 0 mm | - | 636 W/m² | - |
| 1777496036 | 15.56° C | 54% | 1019.5 hPa | 0 mm | - | 559 W/m² | - |
| 1777495732 | 16.67° C | 52% | 1019.5 hPa | 0 mm | - | 205 W/m² | - |
| 1777495429 | 16.11° C | 52% | 1019.5 hPa | 0 mm | - | 573 W/m² | - |
| 1777495125 | 16.11° C | 55% | 1019.5 hPa | 0 mm | - | 442 W/m² | - |
| 1777494823 | 16.11° C | 54% | 1019.5 hPa | 0 mm | - | 560 W/m² | - |
| 1777494519 | 15.56° C | 53% | 1019.8 hPa | 0 mm | - | 636 W/m² | - |
| 1777494217 | 15.56° C | 55% | 1020.2 hPa | 0 mm | - | 627 W/m² | - |
| 1777493914 | 15° C | 55% | 1020.2 hPa | 0 mm | - | 540 W/m² | - |
| 1777493612 | 15.56° C | 54% | 1020.2 hPa | 0 mm | - | 538 W/m² | - |
* Rain latest hour (hover to see other rain measurements)
** Current wind speed in m/s (hover to see current wind gust speed)